Location: Dannhausen
(51.8650°N, 10.1026°E)
Time: 21:09:02
(UTC+00:00)

H-2A R/B - Pass Details

Date: 09 April 2020
Orbit: 734 x 836 km, 98.2° (Epoch: 26 May)

Event Time Altitude Azimuth Distance (km) Brightness Sun altitude
Rises 19:58:23 0° 204° (SSW) 3,278 5.1 -16.2°
Reaches altitude 10° 20:01:15 10° 220° (SW) 2,335 4.5 -16.5°
Maximum altitude 20:05:08 21° 270° (W) 1,663 4.4 -17.0°
Drops below altitude 10° 20:08:59 10° 319° (NW) 2,299 5.7 -17.5°
Sets 20:11:49 0° 335° (NNW) 3,214 6.4 -17.8°
